contact:dominique.lefevre@mio.osupytheas.fr, maurice.libes@osupytheas.fr, didier.mallarino@osupytheas.fr
Project:EMSO http://www.emso-fr.org/EMSO-France
Depth: 2436.0 m
Title:EMSO Ligure Ouest : Data MII capteur MICROCAT
DateTime_Computer,Latitude,Longitude,Temperature,Conductivity,Pressure,DateTime_Instrument
DateTime_Computer,Latitude,Longitude,degC,S m-1,dbar,DateTime_Instrument
2023-10-24T00:01:26Z,42.805,6.029,13.3034,4.60105,2470.81,2023-10-24T02:03:51Z
2023-10-24T00:04:29Z,42.805,6.029,13.3035,4.60107,2470.796,2023-10-24T02:06:54Z
2023-10-24T00:07:32Z,42.805,6.029,13.3036,4.60106,2470.81,2023-10-24T02:09:57Z
2023-10-24T00:10:35Z,42.805,6.029,13.3035,4.60107,2470.833,2023-10-24T02:13:00Z
2023-10-24T00:13:38Z,42.805,6.029,13.3033,4.60105,2470.81,2023-10-24T02:16:03Z
2023-10-24T00:16:41Z,42.805,6.029,13.3036,4.60108,2470.857,2023-10-24T02:19:06Z
2023-10-24T00:19:44Z,42.805,6.029,13.3036,4.60104,2470.857,2023-10-24T02:22:10Z
2023-10-24T00:22:47Z,42.805,6.029,13.3036,4.60105,2470.833,2023-10-24T02:25:13Z
2023-10-24T00:25:50Z,42.805,6.029,13.3030,4.60105,2470.857,2023-10-24T02:28:16Z
2023-10-24T00:28:54Z,42.805,6.029,13.3037,4.60107,2470.833,2023-10-24T02:31:19Z
2023-10-24T00:31:57Z,42.805,6.029,13.3039,4.60106,2470.847,2023-10-24T02:34:22Z
2023-10-24T00:35:00Z,42.805,6.029,13.3036,4.60104,2470.847,2023-10-24T02:37:25Z
2023-10-24T00:38:03Z,42.805,6.029,13.3035,4.60104,2470.833,2023-10-24T02:40:28Z
2023-10-24T00:41:06Z,42.805,6.029,13.3034,4.60104,2470.847,2023-10-24T02:43:31Z
2023-10-24T00:44:09Z,42.805,6.029,13.3036,4.60104,2470.833,2023-10-24T02:46:34Z
2023-10-24T00:47:12Z,42.805,6.029,13.3036,4.60104,2470.857,2023-10-24T02:49:37Z
2023-10-24T00:50:15Z,42.805,6.029,13.3036,4.60104,2470.857,2023-10-24T02:52:40Z
2023-10-24T00:53:18Z,42.805,6.029,13.3035,4.60105,2470.81,2023-10-24T02:55:43Z
2023-10-24T00:56:21Z,42.805,6.029,13.3033,4.60104,2470.857,2023-10-24T02:58:47Z
2023-10-24T00:59:24Z,42.805,6.029,13.3034,4.60105,2470.88,2023-10-24T03:01:50Z
2023-10-24T01:02:27Z,42.805,6.029,13.3038,4.60105,2470.833,2023-10-24T03:04:53Z
2023-10-24T01:05:30Z,42.805,6.029,13.3036,4.60104,2470.857,2023-10-24T03:07:56Z
2023-10-24T01:08:34Z,42.805,6.029,13.3032,4.60104,2470.833,2023-10-24T03:10:59Z
2023-10-24T01:11:37Z,42.805,6.029,13.3034,4.60104,2470.82,2023-10-24T03:14:02Z
2023-10-24T01:14:40Z,42.805,6.029,13.3036,4.60104,2470.847,2023-10-24T03:17:05Z
2023-10-24T01:17:43Z,42.805,6.029,13.3035,4.60104,2470.833,2023-10-24T03:20:08Z
2023-10-24T01:20:46Z,42.805,6.029,13.3031,4.60104,2470.871,2023-10-24T03:23:11Z
2023-10-24T01:23:49Z,42.805,6.029,13.3034,4.60104,2470.871,2023-10-24T03:26:14Z
2023-10-24T01:26:52Z,42.805,6.029,13.3036,4.60104,2470.857,2023-10-24T03:29:17Z
2023-10-24T01:29:55Z,42.805,6.029,13.3031,4.60104,2470.871,2023-10-24T03:32:20Z
2023-10-24T01:32:58Z,42.805,6.029,13.3032,4.60105,2470.833,2023-10-24T03:35:23Z
2023-10-24T01:36:01Z,42.805,6.029,13.3037,4.60104,2470.833,2023-10-24T03:38:27Z
2023-10-24T01:39:04Z,42.805,6.029,13.3036,4.60104,2470.833,2023-10-24T03:41:30Z
2023-10-24T01:42:07Z,42.805,6.029,13.3036,4.60104,2470.871,2023-10-24T03:44:33Z
2023-10-24T01:45:11Z,42.805,6.029,13.3035,4.60106,2470.857,2023-10-24T03:47:36Z
2023-10-24T01:48:14Z,42.805,6.029,13.3034,4.60104,2470.857,2023-10-24T03:50:39Z
2023-10-24T01:51:17Z,42.805,6.029,13.3034,4.60104,2470.88,2023-10-24T03:53:42Z
2023-10-24T01:54:20Z,42.805,6.029,13.3034,4.60107,2470.894,2023-10-24T03:56:45Z
2023-10-24T01:57:23Z,42.805,6.029,13.3033,4.60104,2470.857,2023-10-24T03:59:48Z
2023-10-24T02:00:26Z,42.805,6.029,13.3038,4.60104,2470.833,2023-10-24T04:02:51Z
2023-10-24T02:03:29Z,42.805,6.029,13.3037,4.60107,2470.857,2023-10-24T04:05:54Z
2023-10-24T02:06:32Z,42.805,6.029,13.3038,4.60104,2470.871,2023-10-24T04:08:57Z
2023-10-24T02:09:35Z,42.805,6.029,13.3034,4.60104,2470.857,2023-10-24T04:12:00Z
2023-10-24T02:12:38Z,42.805,6.029,13.3034,4.60104,2470.833,2023-10-24T04:15:04Z
2023-10-24T02:15:41Z,42.805,6.029,13.3036,4.60104,2470.871,2023-10-24T04:18:07Z
2023-10-24T02:18:44Z,42.805,6.029,13.3038,4.60104,2470.833,2023-10-24T04:21:10Z
2023-10-24T02:21:47Z,42.805,6.029,13.3034,4.60104,2470.857,2023-10-24T04:24:13Z
2023-10-24T02:24:51Z,42.805,6.029,13.3031,4.60103,2470.857,2023-10-24T04:27:16Z
2023-10-24T02:27:54Z,42.805,6.029,13.3031,4.60104,2470.796,2023-10-24T04:30:19Z
2023-10-24T02:30:57Z,42.805,6.029,13.3034,4.60104,2470.88,2023-10-24T04:33:22Z
2023-10-24T02:34:00Z,42.805,6.029,13.3032,4.60104,2470.894,2023-10-24T04:36:25Z
2023-10-24T02:37:03Z,42.805,6.029,13.3032,4.60105,2470.871,2023-10-24T04:39:28Z
2023-10-24T02:40:06Z,42.805,6.029,13.3034,4.60106,2470.857,2023-10-24T04:42:31Z
2023-10-24T02:43:09Z,42.805,6.029,13.3031,4.60104,2470.857,2023-10-24T04:45:34Z
2023-10-24T02:46:12Z,42.805,6.029,13.3036,4.60105,2470.894,2023-10-24T04:48:37Z
2023-10-24T02:49:15Z,42.805,6.029,13.3033,4.60104,2470.857,2023-10-24T04:51:40Z
2023-10-24T02:52:18Z,42.805,6.029,13.3034,4.60104,2470.857,2023-10-24T04:54:44Z
2023-10-24T02:55:21Z,42.805,6.029,13.3036,4.60106,2470.857,2023-10-24T04:57:47Z
2023-10-24T02:58:24Z,42.805,6.029,13.3037,4.60104,2470.857,2023-10-24T05:00:50Z
2023-10-24T03:01:28Z,42.805,6.029,13.3031,4.60104,2470.871,2023-10-24T05:03:53Z
2023-10-24T03:04:31Z,42.805,6.029,13.3035,4.60104,2470.88,2023-10-24T05:06:56Z
2023-10-24T03:07:34Z,42.805,6.029,13.3032,4.60104,2470.871,2023-10-24T05:09:59Z
2023-10-24T03:10:37Z,42.805,6.029,13.3036,4.60105,2470.857,2023-10-24T05:13:02Z
2023-10-24T03:13:40Z,42.805,6.029,13.3034,4.60105,2470.894,2023-10-24T05:16:05Z
2023-10-24T03:16:43Z,42.805,6.029,13.3034,4.60104,2470.857,2023-10-24T05:19:08Z
2023-10-24T03:19:46Z,42.805,6.029,13.3036,4.60104,2470.857,2023-10-24T05:22:11Z
2023-10-24T03:22:49Z,42.805,6.029,13.3036,4.60104,2470.88,2023-10-24T05:25:14Z
2023-10-24T03:25:52Z,42.805,6.029,13.3035,4.60107,2470.857,2023-10-24T05:28:17Z
2023-10-24T03:28:55Z,42.805,6.029,13.3036,4.60104,2470.857,2023-10-24T05:31:21Z
2023-10-24T03:31:58Z,42.805,6.029,13.3032,4.60104,2470.857,2023-10-24T05:34:24Z
2023-10-24T03:35:01Z,42.805,6.029,13.3035,4.60106,2470.857,2023-10-24T05:37:27Z
2023-10-24T03:38:05Z,42.805,6.029,13.3039,4.60104,2470.88,2023-10-24T05:40:30Z
2023-10-24T03:41:08Z,42.805,6.029,13.3034,4.60104,2470.88,2023-10-24T05:43:33Z
2023-10-24T03:44:11Z,42.805,6.029,13.3036,4.60104,2470.833,2023-10-24T05:46:36Z
2023-10-24T03:47:14Z,42.805,6.029,13.3034,4.60105,2470.88,2023-10-24T05:49:39Z
2023-10-24T03:50:17Z,42.805,6.029,13.3033,4.60104,2470.871,2023-10-24T05:52:42Z
2023-10-24T03:53:20Z,42.805,6.029,13.3033,4.60105,2470.833,2023-10-24T05:55:45Z
2023-10-24T03:56:23Z,42.805,6.029,13.3034,4.60105,2470.88,2023-10-24T05:58:48Z
2023-10-24T03:59:26Z,42.805,6.029,13.3039,4.60108,2470.88,2023-10-24T06:01:51Z
2023-10-24T04:02:29Z,42.805,6.029,13.3038,4.60106,2470.857,2023-10-24T06:04:54Z
2023-10-24T04:05:32Z,42.805,6.029,13.3031,4.60104,2470.871,2023-10-24T06:07:58Z
2023-10-24T04:08:35Z,42.805,6.029,13.3036,4.60104,2470.871,2023-10-24T06:11:01Z
2023-10-24T04:11:38Z,42.805,6.029,13.3037,4.60104,2470.88,2023-10-24T06:14:04Z
2023-10-24T04:14:41Z,42.805,6.029,13.3036,4.60105,2470.871,2023-10-24T06:17:07Z
2023-10-24T04:17:45Z,42.805,6.029,13.3033,4.60107,2470.833,2023-10-24T06:20:10Z
2023-10-24T04:20:48Z,42.805,6.029,13.3040,4.60104,2470.857,2023-10-24T06:23:13Z
2023-10-24T04:23:51Z,42.805,6.029,13.3035,4.60105,2470.857,2023-10-24T06:26:16Z
2023-10-24T04:26:54Z,42.805,6.029,13.3034,4.60104,2470.857,2023-10-24T06:29:19Z
2023-10-24T04:29:57Z,42.805,6.029,13.3034,4.60106,2470.871,2023-10-24T06:32:22Z
2023-10-24T04:32:59Z,42.805,6.029,13.3031,4.60105,2470.857,2023-10-24T06:35:24Z
2023-10-24T04:36:02Z,42.805,6.029,13.3032,4.60107,2470.833,2023-10-24T06:38:28Z
2023-10-24T04:39:05Z,42.805,6.029,13.3039,4.60108,2470.894,2023-10-24T06:41:31Z
2023-10-24T04:42:08Z,42.805,6.029,13.3035,4.60105,2470.857,2023-10-24T06:44:34Z
2023-10-24T04:45:12Z,42.805,6.029,13.3035,4.60106,2470.857,2023-10-24T06:47:37Z
2023-10-24T04:48:15Z,42.805,6.029,13.3038,4.60107,2470.857,2023-10-24T06:50:40Z
2023-10-24T04:51:18Z,42.805,6.029,13.3034,4.60104,2470.857,2023-10-24T06:53:43Z
2023-10-24T04:54:21Z,42.805,6.029,13.3039,4.60107,2470.857,2023-10-24T06:56:46Z
2023-10-24T04:57:24Z,42.805,6.029,13.3041,4.60116,2470.847,2023-10-24T06:59:49Z
2023-10-24T05:00:27Z,42.805,6.029,13.3041,4.60110,2470.88,2023-10-24T07:02:52Z
2023-10-24T05:03:30Z,42.805,6.029,13.3036,4.60107,2470.894,2023-10-24T07:05:55Z
2023-10-24T05:06:33Z,42.805,6.029,13.3037,4.60108,2470.847,2023-10-24T07:08:58Z
2023-10-24T05:09:36Z,42.805,6.029,13.3037,4.60110,2470.871,2023-10-24T07:12:01Z
2023-10-24T05:12:39Z,42.805,6.029,13.3045,4.60126,2470.894,2023-10-24T07:15:05Z
2023-10-24T05:15:42Z,42.805,6.029,13.3049,4.60123,2470.81,2023-10-24T07:18:08Z
2023-10-24T05:18:45Z,42.805,6.029,13.3045,4.60107,2470.857,2023-10-24T07:21:11Z
2023-10-24T05:21:49Z,42.805,6.029,13.3035,4.60106,2470.847,2023-10-24T07:24:14Z
2023-10-24T05:24:52Z,42.805,6.029,13.3039,4.60106,2470.857,2023-10-24T07:27:17Z
2023-10-24T05:27:55Z,42.805,6.029,13.3036,4.60104,2470.833,2023-10-24T07:30:20Z
2023-10-24T05:30:58Z,42.805,6.029,13.3036,4.60105,2470.871,2023-10-24T07:33:23Z
2023-10-24T05:34:01Z,42.805,6.029,13.3033,4.60107,2470.871,2023-10-24T07:36:26Z
2023-10-24T05:37:04Z,42.805,6.029,13.3036,4.60110,2470.847,2023-10-24T07:39:29Z
2023-10-24T05:40:07Z,42.805,6.029,13.3036,4.60107,2470.871,2023-10-24T07:42:32Z
2023-10-24T05:43:10Z,42.805,6.029,13.3039,4.60106,2470.857,2023-10-24T07:45:35Z
2023-10-24T05:46:13Z,42.805,6.029,13.3036,4.60106,2470.871,2023-10-24T07:48:38Z
2023-10-24T05:49:16Z,42.805,6.029,13.3038,4.60109,2470.871,2023-10-24T07:51:42Z
2023-10-24T05:52:19Z,42.805,6.029,13.3034,4.60104,2470.843,2023-10-24T07:54:45Z
2023-10-24T05:55:22Z,42.805,6.029,13.3037,4.60104,2470.833,2023-10-24T07:57:48Z
2023-10-24T05:58:25Z,42.805,6.029,13.3039,4.60114,2470.871,2023-10-24T08:00:51Z
2023-10-24T06:01:29Z,42.805,6.029,13.3039,4.60106,2470.88,2023-10-24T08:03:54Z
2023-10-24T06:04:32Z,42.805,6.029,13.3049,4.60121,2470.833,2023-10-24T08:06:57Z
2023-10-24T06:07:35Z,42.805,6.029,13.3039,4.60107,2470.833,2023-10-24T08:10:00Z
2023-10-24T06:10:38Z,42.805,6.029,13.3038,4.60106,2470.833,2023-10-24T08:13:03Z
2023-10-24T06:13:41Z,42.805,6.029,13.3040,4.60125,2470.847,2023-10-24T08:16:06Z
2023-10-24T06:16:44Z,42.805,6.029,13.3034,4.60109,2470.833,2023-10-24T08:19:09Z
2023-10-24T06:19:47Z,42.805,6.029,13.3043,4.60109,2470.833,2023-10-24T08:22:12Z
2023-10-24T06:22:50Z,42.805,6.029,13.3036,4.60115,2470.847,2023-10-24T08:25:15Z
2023-10-24T06:25:53Z,42.805,6.029,13.3037,4.60107,2470.871,2023-10-24T08:28:18Z
2023-10-24T06:28:56Z,42.805,6.029,13.3046,4.60122,2470.847,2023-10-24T08:31:22Z
2023-10-24T06:31:58Z,42.805,6.029,13.3055,4.60132,2470.833,2023-10-24T08:34:24Z
2023-10-24T06:35:01Z,42.805,6.029,13.3051,4.60127,2470.824,2023-10-24T08:37:27Z
2023-10-24T06:38:04Z,42.805,6.029,13.3035,4.60108,2470.833,2023-10-24T08:40:30Z
2023-10-24T06:41:08Z,42.805,6.029,13.3036,4.60106,2470.81,2023-10-24T08:43:33Z
2023-10-24T06:44:11Z,42.805,6.029,13.3054,4.60112,2470.81,2023-10-24T08:46:36Z
2023-10-24T06:47:14Z,42.805,6.029,13.3051,4.60123,2470.824,2023-10-24T08:49:39Z
2023-10-24T06:50:17Z,42.805,6.029,13.3058,4.60139,2470.787,2023-10-24T08:52:42Z
2023-10-24T06:53:20Z,42.805,6.029,13.3055,4.60155,2470.847,2023-10-24T08:55:45Z
2023-10-24T06:56:23Z,42.805,6.029,13.3056,4.60142,2470.824,2023-10-24T08:58:48Z
2023-10-24T06:59:26Z,42.805,6.029,13.3044,4.60113,2470.796,2023-10-24T09:01:51Z
2023-10-24T07:02:29Z,42.805,6.029,13.3054,4.60114,2470.81,2023-10-24T09:04:54Z
2023-10-24T07:05:32Z,42.805,6.029,13.3034,4.60112,2470.833,2023-10-24T09:07:57Z
2023-10-24T07:08:35Z,42.805,6.029,13.3038,4.60112,2470.833,2023-10-24T09:11:01Z
2023-10-24T07:11:38Z,42.805,6.029,13.3036,4.60107,2470.81,2023-10-24T09:14:04Z
2023-10-24T07:14:41Z,42.805,6.029,13.3039,4.60108,2470.81,2023-10-24T09:17:07Z
2023-10-24T07:17:45Z,42.805,6.029,13.3039,4.60114,2470.824,2023-10-24T09:20:10Z
2023-10-24T07:20:48Z,42.805,6.029,13.3038,4.60112,2470.833,2023-10-24T09:23:13Z
2023-10-24T07:23:51Z,42.805,6.029,13.3034,4.60107,2470.81,2023-10-24T09:26:16Z
2023-10-24T07:26:54Z,42.805,6.029,13.3034,4.60107,2470.787,2023-10-24T09:29:19Z
2023-10-24T07:29:57Z,42.805,6.029,13.3037,4.60105,2470.847,2023-10-24T09:32:22Z
2023-10-24T07:33:00Z,42.805,6.029,13.3037,4.60105,2470.787,2023-10-24T09:35:25Z
2023-10-24T07:36:03Z,42.805,6.029,13.3036,4.60107,2470.787,2023-10-24T09:38:28Z
2023-10-24T07:39:06Z,42.805,6.029,13.3036,4.60111,2470.847,2023-10-24T09:41:31Z
2023-10-24T07:42:09Z,42.805,6.029,13.3039,4.60105,2470.833,2023-10-24T09:44:34Z
2023-10-24T07:45:12Z,42.805,6.029,13.3043,4.60109,2470.81,2023-10-24T09:47:38Z
2023-10-24T07:48:15Z,42.805,6.029,13.3040,4.60107,2470.81,2023-10-24T09:50:41Z
2023-10-24T07:51:18Z,42.805,6.029,13.3050,4.60121,2470.81,2023-10-24T09:53:44Z
2023-10-24T07:54:21Z,42.805,6.029,13.3056,4.60120,2470.81,2023-10-24T09:56:47Z
2023-10-24T07:57:25Z,42.805,6.029,13.3048,4.60126,2470.81,2023-10-24T09:59:50Z
2023-10-24T08:00:28Z,42.805,6.029,13.3041,4.60110,2470.833,2023-10-24T10:02:53Z
2023-10-24T08:03:31Z,42.805,6.029,13.3054,4.60129,2470.824,2023-10-24T10:05:56Z
2023-10-24T08:06:34Z,42.805,6.029,13.3070,4.60129,2470.81,2023-10-24T10:08:59Z
2023-10-24T08:09:37Z,42.805,6.029,13.3048,4.60115,2470.787,2023-10-24T10:12:02Z
2023-10-24T08:12:40Z,42.805,6.029,13.3036,4.60107,2470.824,2023-10-24T10:15:05Z
2023-10-24T08:15:43Z,42.805,6.029,13.3041,4.60107,2470.824,2023-10-24T10:18:08Z
2023-10-24T08:18:46Z,42.805,6.029,13.3056,4.60127,2470.787,2023-10-24T10:21:11Z
2023-10-24T08:21:49Z,42.805,6.029,13.3061,4.60122,2470.8,2023-10-24T10:24:15Z
2023-10-24T08:24:52Z,42.805,6.029,13.3042,4.60112,2470.824,2023-10-24T10:27:18Z
2023-10-24T08:27:55Z,42.805,6.029,13.3043,4.60114,2470.8,2023-10-24T10:30:21Z
2023-10-24T08:30:59Z,42.805,6.029,13.3069,4.60119,2470.787,2023-10-24T10:33:24Z
2023-10-24T08:34:02Z,42.805,6.029,13.3084,4.60137,2470.81,2023-10-24T10:36:27Z
2023-10-24T08:37:05Z,42.805,6.029,13.3037,4.60114,2470.787,2023-10-24T10:39:30Z
2023-10-24T08:40:08Z,42.805,6.029,13.3038,4.60110,2470.787,2023-10-24T10:42:33Z
2023-10-24T08:43:11Z,42.805,6.029,13.3039,4.60111,2470.787,2023-10-24T10:45:36Z
2023-10-24T08:46:14Z,42.805,6.029,13.3040,4.60108,2470.787,2023-10-24T10:48:39Z
2023-10-24T08:49:17Z,42.805,6.029,13.3034,4.60110,2470.824,2023-10-24T10:51:42Z
2023-10-24T08:52:20Z,42.805,6.029,13.3036,4.60108,2470.787,2023-10-24T10:54:45Z
2023-10-24T08:55:23Z,42.805,6.029,13.3040,4.60108,2470.796,2023-10-24T10:57:49Z
2023-10-24T08:58:26Z,42.805,6.029,13.3042,4.60109,2470.787,2023-10-24T11:00:52Z
2023-10-24T09:01:29Z,42.805,6.029,13.3042,4.60108,2470.787,2023-10-24T11:03:55Z
2023-10-24T09:04:32Z,42.805,6.029,13.3039,4.60107,2470.787,2023-10-24T11:06:58Z
2023-10-24T09:07:36Z,42.805,6.029,13.3039,4.60109,2470.81,2023-10-24T11:10:01Z
2023-10-24T09:10:39Z,42.805,6.029,13.3037,4.60109,2470.847,2023-10-24T11:13:04Z
2023-10-24T09:13:42Z,42.805,6.029,13.3039,4.60110,2470.81,2023-10-24T11:16:07Z
2023-10-24T09:16:45Z,42.805,6.029,13.3039,4.60112,2470.763,2023-10-24T11:19:10Z
2023-10-24T09:19:48Z,42.805,6.029,13.3038,4.60107,2470.787,2023-10-24T11:22:13Z
2023-10-24T09:22:51Z,42.805,6.029,13.3037,4.60108,2470.787,2023-10-24T11:25:16Z
2023-10-24T09:25:54Z,42.805,6.029,13.3041,4.60110,2470.824,2023-10-24T11:28:19Z
2023-10-24T09:28:57Z,42.805,6.029,13.3039,4.60110,2470.787,2023-10-24T11:31:22Z
2023-10-24T09:32:00Z,42.805,6.029,13.3038,4.60110,2470.824,2023-10-24T11:34:26Z
2023-10-24T09:35:03Z,42.805,6.029,13.3034,4.60109,2470.81,2023-10-24T11:37:29Z
2023-10-24T09:38:06Z,42.805,6.029,13.3041,4.60109,2470.824,2023-10-24T11:40:32Z
2023-10-24T09:41:09Z,42.805,6.029,13.3041,4.60109,2470.8,2023-10-24T11:43:35Z
2023-10-24T09:44:13Z,42.805,6.029,13.3036,4.60108,2470.763,2023-10-24T11:46:38Z
2023-10-24T09:47:16Z,42.805,6.029,13.3038,4.60110,2470.824,2023-10-24T11:49:41Z
2023-10-24T09:50:19Z,42.805,6.029,13.3040,4.60108,2470.81,2023-10-24T11:52:44Z
2023-10-24T09:53:22Z,42.805,6.029,13.3040,4.60108,2470.8,2023-10-24T11:55:47Z
2023-10-24T09:56:25Z,42.805,6.029,13.3040,4.60108,2470.773,2023-10-24T11:58:50Z
2023-10-24T09:59:28Z,42.805,6.029,13.3034,4.60109,2470.787,2023-10-24T12:01:53Z
2023-10-24T10:02:31Z,42.805,6.029,13.3035,4.60109,2470.763,2023-10-24T12:04:56Z
2023-10-24T10:05:34Z,42.805,6.029,13.3039,4.60110,2470.787,2023-10-24T12:07:59Z
2023-10-24T10:08:37Z,42.805,6.029,13.3038,4.60109,2470.787,2023-10-24T12:11:03Z
2023-10-24T10:11:40Z,42.805,6.029,13.3039,4.60109,2470.773,2023-10-24T12:14:06Z
2023-10-24T10:14:43Z,42.805,6.029,13.3038,4.60109,2470.833,2023-10-24T12:17:09Z
2023-10-24T10:17:47Z,42.805,6.029,13.3036,4.60111,2470.8,2023-10-24T12:20:12Z
2023-10-24T10:20:50Z,42.805,6.029,13.3039,4.60110,2470.833,2023-10-24T12:23:15Z
2023-10-24T10:23:53Z,42.805,6.029,13.3035,4.60110,2470.81,2023-10-24T12:26:18Z
2023-10-24T10:26:56Z,42.805,6.029,13.3034,4.60109,2470.824,2023-10-24T12:29:21Z
2023-10-24T10:29:59Z,42.805,6.029,13.3041,4.60110,2470.787,2023-10-24T12:32:24Z
2023-10-24T10:33:02Z,42.805,6.029,13.3036,4.60109,2470.847,2023-10-24T12:35:27Z
2023-10-24T10:36:05Z,42.805,6.029,13.3041,4.60109,2470.787,2023-10-24T12:38:30Z
2023-10-24T10:39:08Z,42.805,6.029,13.3038,4.60110,2470.833,2023-10-24T12:41:33Z
2023-10-24T10:42:11Z,42.805,6.029,13.3040,4.60108,2470.81,2023-10-24T12:44:37Z
2023-10-24T10:45:14Z,42.805,6.029,13.3039,4.60111,2470.824,2023-10-24T12:47:40Z
2023-10-24T10:48:17Z,42.805,6.029,13.3037,4.60110,2470.787,2023-10-24T12:50:43Z
2023-10-24T10:51:20Z,42.805,6.029,13.3041,4.60110,2470.8,2023-10-24T12:53:46Z
2023-10-24T10:54:24Z,42.805,6.029,13.3036,4.60110,2470.787,2023-10-24T12:56:49Z
2023-10-24T10:57:27Z,42.805,6.029,13.3039,4.60109,2470.824,2023-10-24T12:59:52Z
2023-10-24T11:00:30Z,42.805,6.029,13.3036,4.60108,2470.847,2023-10-24T13:02:55Z
2023-10-24T11:03:33Z,42.805,6.029,13.3039,4.60110,2470.787,2023-10-24T13:05:58Z
2023-10-24T11:06:36Z,42.805,6.029,13.3036,4.60110,2470.787,2023-10-24T13:09:01Z
2023-10-24T11:09:39Z,42.805,6.029,13.3038,4.60109,2470.847,2023-10-24T13:12:04Z
2023-10-24T11:12:42Z,42.805,6.029,13.3038,4.60110,2470.824,2023-10-24T13:15:07Z
2023-10-24T11:15:45Z,42.805,6.029,13.3037,4.60110,2470.833,2023-10-24T13:18:10Z
2023-10-24T11:18:48Z,42.805,6.029,13.3040,4.60110,2470.787,2023-10-24T13:21:14Z
2023-10-24T11:21:51Z,42.805,6.029,13.3037,4.60109,2470.847,2023-10-24T13:24:17Z
2023-10-24T11:24:54Z,42.805,6.029,13.3039,4.60110,2470.81,2023-10-24T13:27:20Z
2023-10-24T11:27:58Z,42.805,6.029,13.3041,4.60110,2470.833,2023-10-24T13:30:23Z
2023-10-24T11:31:01Z,42.805,6.029,13.3036,4.60111,2470.847,2023-10-24T13:33:26Z
2023-10-24T11:34:04Z,42.805,6.029,13.3039,4.60110,2470.857,2023-10-24T13:36:29Z
2023-10-24T11:37:07Z,42.805,6.029,13.3034,4.60110,2470.847,2023-10-24T13:39:32Z
2023-10-24T11:40:10Z,42.805,6.029,13.3040,4.60111,2470.81,2023-10-24T13:42:35Z
2023-10-24T11:43:13Z,42.805,6.029,13.3042,4.60110,2470.833,2023-10-24T13:45:38Z
2023-10-24T11:46:16Z,42.805,6.029,13.3041,4.60114,2470.833,2023-10-24T13:48:41Z
2023-10-24T11:49:19Z,42.805,6.029,13.3036,4.60110,2470.81,2023-10-24T13:51:44Z
2023-10-24T11:52:22Z,42.805,6.029,13.3040,4.60110,2470.857,2023-10-24T13:54:47Z
2023-10-24T11:55:25Z,42.805,6.029,13.3040,4.60110,2470.833,2023-10-24T13:57:51Z
2023-10-24T11:58:28Z,42.805,6.029,13.3041,4.60110,2470.857,2023-10-24T14:00:54Z
2023-10-24T12:01:31Z,42.805,6.029,13.3041,4.60110,2470.833,2023-10-24T14:03:57Z
2023-10-24T12:04:34Z,42.805,6.029,13.3039,4.60111,2470.857,2023-10-24T14:07:00Z
2023-10-24T12:07:38Z,42.805,6.029,13.3041,4.60110,2470.857,2023-10-24T14:10:03Z
2023-10-24T12:10:41Z,42.805,6.029,13.3043,4.60110,2470.833,2023-10-24T14:13:06Z
2023-10-24T12:13:44Z,42.805,6.029,13.3039,4.60112,2470.857,2023-10-24T14:16:09Z
2023-10-24T12:16:47Z,42.805,6.029,13.3043,4.60110,2470.88,2023-10-24T14:19:12Z
2023-10-24T12:19:50Z,42.805,6.029,13.3040,4.60110,2470.857,2023-10-24T14:22:15Z
2023-10-24T12:22:53Z,42.805,6.029,13.3039,4.60110,2470.833,2023-10-24T14:25:18Z
2023-10-24T12:25:56Z,42.805,6.029,13.3043,4.60111,2470.833,2023-10-24T14:28:21Z
2023-10-24T12:28:59Z,42.805,6.029,13.3043,4.60110,2470.833,2023-10-24T14:31:24Z
2023-10-24T12:32:02Z,42.805,6.029,13.3041,4.60110,2470.894,2023-10-24T14:34:28Z
2023-10-24T12:35:05Z,42.805,6.029,13.3039,4.60114,2470.866,2023-10-24T14:37:31Z
2023-10-24T12:38:08Z,42.805,6.029,13.3041,4.60112,2470.894,2023-10-24T14:40:34Z
2023-10-24T12:41:12Z,42.805,6.029,13.3037,4.60111,2470.871,2023-10-24T14:43:37Z
2023-10-24T12:44:15Z,42.805,6.029,13.3040,4.60113,2470.88,2023-10-24T14:46:40Z
2023-10-24T12:47:18Z,42.805,6.029,13.3043,4.60111,2470.88,2023-10-24T14:49:43Z
2023-10-24T12:50:21Z,42.805,6.029,13.3042,4.60110,2470.88,2023-10-24T14:52:46Z
2023-10-24T12:53:24Z,42.805,6.029,13.3041,4.60110,2470.88,2023-10-24T14:55:49Z
2023-10-24T12:56:27Z,42.805,6.029,13.3040,4.60112,2470.88,2023-10-24T14:58:52Z
2023-10-24T12:59:30Z,42.805,6.029,13.3040,4.60112,2470.894,2023-10-24T15:01:55Z
2023-10-24T13:02:33Z,42.805,6.029,13.3041,4.60113,2470.871,2023-10-24T15:04:58Z
2023-10-24T13:05:36Z,42.805,6.029,13.3038,4.60111,2470.894,2023-10-24T15:08:02Z
2023-10-24T13:08:39Z,42.805,6.029,13.3042,4.60111,2470.88,2023-10-24T15:11:05Z
2023-10-24T13:11:42Z,42.805,6.029,13.3040,4.60111,2470.88,2023-10-24T15:14:08Z
2023-10-24T13:14:45Z,42.805,6.029,13.3048,4.60114,2470.857,2023-10-24T15:17:11Z
2023-10-24T13:17:49Z,42.805,6.029,13.3041,4.60113,2470.88,2023-10-24T15:20:14Z
2023-10-24T13:20:52Z,42.805,6.029,13.3042,4.60110,2470.904,2023-10-24T15:23:17Z
2023-10-24T13:23:55Z,42.805,6.029,13.3041,4.60113,2470.88,2023-10-24T15:26:20Z
2023-10-24T13:26:58Z,42.805,6.029,13.3041,4.60111,2470.927,2023-10-24T15:29:23Z
2023-10-24T13:30:01Z,42.805,6.029,13.3044,4.60110,2470.904,2023-10-24T15:32:26Z
2023-10-24T13:33:04Z,42.805,6.029,13.3038,4.60111,2470.894,2023-10-24T15:35:29Z
2023-10-24T13:36:07Z,42.805,6.029,13.3039,4.60112,2470.894,2023-10-24T15:38:32Z
2023-10-24T13:39:10Z,42.805,6.029,13.3040,4.60110,2470.917,2023-10-24T15:41:35Z
2023-10-24T13:42:13Z,42.805,6.029,13.3036,4.60112,2470.904,2023-10-24T15:44:39Z
2023-10-24T13:45:16Z,42.805,6.029,13.3041,4.60111,2470.88,2023-10-24T15:47:42Z
2023-10-24T13:48:19Z,42.805,6.029,13.3038,4.60111,2470.94,2023-10-24T15:50:45Z
2023-10-24T13:51:23Z,42.805,6.029,13.3041,4.60110,2470.917,2023-10-24T15:53:48Z
2023-10-24T13:54:26Z,42.805,6.029,13.3036,4.60111,2470.894,2023-10-24T15:56:51Z
2023-10-24T13:57:29Z,42.805,6.029,13.3041,4.60110,2470.894,2023-10-24T15:59:54Z
2023-10-24T14:00:32Z,42.805,6.029,13.3041,4.60110,2470.927,2023-10-24T16:02:57Z
2023-10-24T14:03:35Z,42.805,6.029,13.3039,4.60110,2470.927,2023-10-24T16:06:00Z
2023-10-24T14:06:38Z,42.805,6.029,13.3039,4.60111,2470.904,2023-10-24T16:09:03Z
2023-10-24T14:09:41Z,42.805,6.029,13.3039,4.60110,2470.904,2023-10-24T16:12:06Z
2023-10-24T14:12:44Z,42.805,6.029,13.3043,4.60109,2470.94,2023-10-24T16:15:09Z
2023-10-24T14:15:47Z,42.805,6.029,13.3039,4.60110,2470.927,2023-10-24T16:18:13Z
2023-10-24T14:18:50Z,42.805,6.029,13.3039,4.60113,2470.927,2023-10-24T16:21:16Z
2023-10-24T14:21:53Z,42.805,6.029,13.3042,4.60109,2470.927,2023-10-24T16:24:19Z
2023-10-24T14:24:56Z,42.805,6.029,13.3036,4.60110,2470.89,2023-10-24T16:27:22Z
2023-10-24T14:28:00Z,42.805,6.029,13.3040,4.60108,2470.904,2023-10-24T16:30:25Z
2023-10-24T14:31:03Z,42.805,6.029,13.3040,4.60108,2470.904,2023-10-24T16:33:29Z
2023-10-24T14:34:06Z,42.805,6.029,13.3039,4.60110,2470.927,2023-10-24T16:36:32Z
2023-10-24T14:37:09Z,42.805,6.029,13.3039,4.60109,2470.927,2023-10-24T16:39:35Z
2023-10-24T14:40:12Z,42.805,6.029,13.3038,4.60112,2470.964,2023-10-24T16:42:38Z
2023-10-24T14:43:16Z,42.805,6.029,13.3038,4.60109,2470.95,2023-10-24T16:45:41Z
2023-10-24T14:46:19Z,42.805,6.029,13.3039,4.60109,2470.904,2023-10-24T16:48:44Z
2023-10-24T14:49:22Z,42.805,6.029,13.3039,4.60107,2470.927,2023-10-24T16:51:47Z
2023-10-24T14:52:25Z,42.805,6.029,13.3042,4.60108,2470.94,2023-10-24T16:54:50Z
2023-10-24T14:55:28Z,42.805,6.029,13.3043,4.60109,2470.95,2023-10-24T16:57:53Z
2023-10-24T14:58:31Z,42.805,6.029,13.3047,4.60108,2470.927,2023-10-24T17:00:56Z
2023-10-24T15:01:34Z,42.805,6.029,13.3044,4.60125,2470.964,2023-10-24T17:03:59Z